RADUGA 21 [-]

Last updated on July 6, 2021, 3:35 p.m. UTC

1 18631U 87100A   21186.84820531 -.00000273  00000-0  00000-0 0  9997
2 18631  13.8297 339.6785 0004529  92.8788  86.3090  1.00207240122966
UTC
Height (km)
Latitude
Longitude
Inclination
Orbital Period
UTC large
Height (km)
Speed (km/s)
/
Latitude / Longitude
Inclination (degrees)
Orbital Period (minutes)
Azimuth
Elevation
Range (km)
Doppler Factor
iOS Compass Heading
iOS Angle